Wind_Speed
11 10 9 9 9 9 9 9 8 7 6 5 4 4 3 3 2 2 2 2 2 1 2 3 4 5 6 7 7 8 9 9 9 9 9 9 9 10 10 10 11 10 10 11 11 11 10 10 10 10 10 10 9 8 7 7 7 8 8 7 7 6 7 10 9 10 13 15 16 16 15 15 15 16 16 17 16 15 15 16 16 15 15 16 16
12 10 10 9 10 10 9 9 8 7 6 5 5 4 3 3 2 2 1 0 2 3 3 4 5 5 6 7 8 8 9 9 10 10 10 10 10 10 11 11 11 11 11 11 12 12 11 11 12 12 12 11 11 11 10 10 9 9 9 7 7 7 6 8 10 10 12 14 15 15 14 14 15 15 15 15 17 18 18 18 18 17 17 17 17
12 11 10 10 10 10 9 9 8 7 6 6 5 5 4 3 2 1 2 3 4 5 5 5 5 6 7 8 8 8 9 9 10 10 10 11 11 11 11 12 12 12 11 12 12 12 13 13 13 14 14 13 13 13 12 12 11 10 10 9 9 8 7 6 9 11 12 14 14 14 13 12 13 14 14 14 16 17 18 19 19 18 18 18 18
12 11 11 10 10 10 9 9 8 7 7 6 6 5 4 3 3 4 5 5 6 6 6 6 6 7 8 8 8 9 9 9 10 11 11 11 11 11 11 11 12 11 11 12 12 12 13 13 14 15 14 14 14 14 14 14 13 11 12 11 10 10 9 8 9 10 12 14 14 15 14 12 12 13 13 13 13 14 14 17 18 18 17 17 18
12 11 11 11 10 10 9 9 9 8 8 7 6 5 5 4 5 6 7 7 7 7 7 7 7 7 8 8 8 9 10 10 10 10 11 10 10 11 11 11 11 11 11 11 11 12 12 13 13 14 14 14 14 14 14 14 13 12 12 12 11 11 11 10 9 10 11 13 14 15 14 13 13 12 11 11 12 12 12 13 16 17 17 16 17
13 12 12 11 11 10 10 10 9 9 8 7 6 6 6 7 7 7 8 8 8 8 7 7 7 8 8 8 9 9 10 10 10 10 10 10 10 10 10 10 10 11 11 11 11 12 12 12 13 14 14 14 14 14 14 13 12 12 12 12 12 12 12 11 11 11 11 11 12 13 13 13 13 12 12 12 13 13 12 12 13 13 13 16 18
13 13 12 12 11 11 11 10 10 9 8 7 7 7 8 8 9 9 9 9 9 9 9 9 9 9 9 9 10 10 10 10 10 10 9 10 10 10 10 10 10 10 11 11 11 12 12 13 13 13 14 14 14 14 14 13 12 11 12 12 12 12 12 11 11 11 11 11 11 11 11 12 12 12 12 13 13 12 11 12 13 13 12 14 17
14 13 13 12 12 12 11 10 9 8 8 8 8 9 10 10 10 10 10 10 10 10 10 10 10 10 10 10 10 11 11 10 10 9 9 9 10 10 10 9 9 10 10 11 11 11 12 13 14 14 14 16 16 16 16 16 13 11 12 12 12 12 12 12 12 12 11 11 12 11 11 12 12 12 13 13 13 12 13 13 15 15 14 13 14
15 14 13 13 13 12 11 9 8 8 8 9 10 11 12 12 12 12 11 11 11 11 11 11 11 11 11 11 12 13 13 13 12 10 9 9 9 9 10 9 9 9 10 10 11 11 11 13 14 16 17 18 19 20 20 20 17 14 13 13 12 12 13 12 12 12 12 12 12 12 12 12 13 14 14 14 14 14 15 15 15 16 16 16 15
16 15 14 14 13 12 11 10 9 10 10 11 13 13 13 13 13 12 12 12 12 12 12 12 11 11 11 12 12 14 15 15 14 12 11 10 9 9 9 9 9 9 10 10 10 11 11 12 14 17 17 16 18 20 21 22 21 19 17 16 14 13 13 14 13 13 13 12 12 12 12 11 13 14 13 14 15 15 16 17 16 17 16 16 15
17 16 15 14 14 12 11 11 11 12 13 13 14 14 14 14 14 13 13 13 13 12 12 12 12 11 12 12 13 14 15 15 15 14 14 13 10 9 9 9 9 9 10 9 10 10 11 11 12 14 16 16 16 17 18 19 19 18 17 17 16 15 13 12 13 14 13 13 13 13 13 13 14 14 15 16 16 17 17 17 17 17 16 14 14
18 17 16 15 14 13 13 12 12 13 14 15 15 15 15 15 15 14 15 14 14 13 13 12 12 12 13 14 14 15 17 16 16 15 14 14 12 10 9 9 9 9 9 9 9 9 9 10 11 12 16 18 17 16 16 17 17 16 14 12 13 16 16 13 13 13 14 14 14 14 14 14 15 15 16 17 18 18 18 18 18 18 18 15 14
18 17 17 16 15 15 14 13 14 15 15 16 16 16 16 16 15 15 16 15 14 14 13 13 13 13 13 14 14 15 17 16 15 15 14 14 13 10 9 9 9 9 9 9 9 9 9 9 10 11 14 17 19 19 18 16 15 16 14 10 8 11 15 15 14 13 13 14 15 15 15 16 15 15 16 17 17 18 18 17 18 18 18 18 18
18 18 18 17 17 15 15 15 15 16 17 17 17 17 17 16 16 16 16 16 15 15 14 14 13 13 13 14 14 15 16 15 14 13 13 14 13 10 9 9 9 9 8 8 8 9 9 8 9 10 12 15 19 21 19 17 15 15 15 12 9 9 11 13 13 12 12 13 13 14 14 14 13 13 14 15 15 17 17 18 19 19 19 20 20
19 19 19 18 17 16 16 16 16 17 18 18 18 18 17 17 17 16 16 15 15 15 14 13 13 13 13 14 14 15 15 13 12 11 11 12 11 9 8 8 8 7 7 7 7 8 8 8 9 10 11 14 17 19 19 17 15 14 14 13 12 11 10 12 13 12 12 12 11 11 11 11 11 11 12 14 14 15 17 18 17 17 19 20 19
20 19 19 19 18 17 17 17 18 18 19 19 19 18 18 18 17 17 16 15 14 14 13 13 12 11 12 13 14 14 14 12 10 9 9 8 7 6 6 6 7 6 6 6 7 7 8 8 8 9 11 13 15 16 17 16 13 14 14 13 13 12 11 13 15 15 15 13 12 12 11 11 11 10 11 14 15 16 17 17 15 15 17 18 17
21 20 19 19 19 18 18 18 19 19 20 20 19 18 18 18 17 17 16 15 14 13 13 13 12 11 11 12 12 12 12 10 8 7 7 6 4 3 3 5 5 5 5 5 6 8 9 8 9 9 9 11 13 14 16 14 12 14 14 13 14 13 12 15 15 15 16 15 13 14 13 14 14 10 10 15 17 16 15 15 15 16 16 14 13
21 21 20 19 19 18 19 19 19 20 20 20 19 18 18 17 17 16 16 15 14 14 15 13 11 11 10 10 10 11 10 8 7 6 5 6 4 3 2 4 4 3 4 5 5 7 8 9 9 9 8 10 11 12 14 14 12 13 14 13 14 13 14 16 15 15 16 15 13 13 12 13 13 10 10 14 16 15 13 13 14 16 15 13 13
21 20 18 17 16 17 17 18 18 19 19 18 18 18 17 17 16 16 16 16 15 15 14 13 11 10 10 10 9 9 9 7 6 5 5 5 4 4 4 4 3 2 2 3 3 4 5 6 9 9 7 8 9 10 12 13 11 11 13 13 13 13 15 16 15 15 17 15 14 13 12 12 12 11 10 12 13 12 12 12 13 14 14 14 15
16 14 12 12 12 13 14 15 16 16 16 16 15 16 16 17 18 17 16 16 16 15 14 12 11 10 10 9 9 8 7 7 5 4 4 4 4 4 5 5 4 2 1 2 2 3 3 4 6 8 7 7 9 9 10 12 10 9 10 11 11 13 16 15 13 14 15 14 13 13 12 12 12 11 11 11 11 12 12 12 12 13 13 15 16
8 9 9 10 11 12 13 14 16 16 18 19 19 18 19 21 21 20 18 19 19 16 14 12 11 10 10 9 8 7 6 6 5 4 3 3 4 5 6 6 4 2 1 1 2 3 3 4 4 6 7 7 8 9 9 11 9 7 9 11 11 12 13 13 12 13 13 12 11 11 11 12 12 12 12 12 12 13 14 13 12 13 13 14 16
11 11 12 12 12 12 13 14 16 16 19 23 24 22 22 23 22 19 18 19 19 16 13 12 12 11 10 9 7 6 6 5 4 4 3 3 5 5 5 4 3 2 1 2 3 3 4 3 3 6 8 8 9 10 10 9 7 7 10 12 11 11 10 11 12 12 12 12 11 11 12 12 13 13 13 14 14 15 15 15 15 15 15 14 15
12 13 14 15 17 18 19 20 19 19 22 25 25 22 20 20 18 16 17 17 16 14 13 13 12 11 10 8 7 6 5 5 4 3 3 4 5 4 3 3 2 2 2 2 3 4 4 3 4 8 10 10 11 11 10 8 7 9 12 12 9 8 9 10 11 11 12 12 12 13 13 14 15 15 15 16 17 18 17 17 17 17 17 16 16
11 13 16 20 22 24 25 26 25 25 25 24 21 19 18 17 16 16 15 15 15 14 13 13 11 10 9 8 7 7 6 5 4 3 3 4 4 4 3 3 3 2 3 3 3 4 4 4 7 11 11 11 11 10 9 9 11 12 13 12 9 8 10 12 12 12 13 13 13 14 15 16 16 17 17 18 20 20 19 19 19 19 19 19 18
13 15 18 23 27 28 29 29 30 28 25 21 20 20 20 20 19 17 15 15 16 15 13 12 11 10 8 7 7 7 7 6 5 3 4 4 4 3 2 1 1 1 2 3 4 5 6 8 10 11 11 11 11 9 8 10 13 13 12 11 10 11 12 13 14 15 15 15 15 16 16 17 17 17 18 19 19 19 19 20 20 20 20 20 19
13 14 16 18 22 26 28 28 30 28 25 21 21 23 24 22 18 15 15 16 16 14 12 11 10 9 8 8 8 7 8 7 5 3 3 3 3 2 1 0 2 3 2 3 5 7 8 9 10 10 10 10 11 10 9 10 12 12 11 11 12 13 14 14 15 16 16 15 16 17 17 18 17 17 17 18 19 18 19 20 21 21 21 21 21
17 18 19 20 22 24 25 24 25 24 22 20 21 24 23 17 12 14 16 16 14 13 12 11 9 9 9 9 8 8 7 6 4 3 2 2 2 2 2 2 3 3 3 3 5 6 8 10 11 10 10 11 12 12 11 11 12 12 12 11 12 13 14 15 15 15 15 16 17 17 18 18 18 17 17 18 18 17 17 19 21 22 22 22 21
22 24 25 25 25 23 23 23 22 19 18 18 20 21 18 13 12 15 15 13 13 12 11 10 9 10 11 9 9 8 7 5 4 3 1 1 2 2 2 2 3 3 3 5 7 7 8 10 11 11 10 11 13 12 11 11 12 13 12 12 12 12 13 14 14 15 15 16 17 17 18 18 18 18 19 19 18 17 17 18 20 21 22 21 20
21 22 23 23 22 21 23 24 22 20 20 20 20 19 15 13 14 15 14 12 12 12 12 13 13 12 11 10 8 7 6 6 5 4 3 2 4 3 2 2 2 2 4 7 8 8 8 9 9 9 10 11 12 11 12 12 13 13 12 12 12 13 14 15 16 16 16 16 17 18 18 18 18 19 19 19 19 18 18 18 19 20 21 20 19
20 21 21 21 21 23 26 27 27 26 24 22 19 16 13 10 13 17 17 15 14 13 14 15 15 13 12 10 7 5 4 5 6 5 4 4 4 4 3 4 4 4 6 8 7 7 8 9 9 9 10 11 12 12 12 12 13 13 13 12 13 14 16 17 17 17 16 17 17 18 18 18 18 18 18 18 19 18 18 18 19 20 20 20 20
18 19 19 21 23 25 26 27 27 25 22 19 17 16 13 12 14 17 18 16 15 15 14 13 12 11 9 8 6 5 4 5 5 5 4 3 3 3 3 4 4 5 7 7 7 7 8 9 10 10 10 11 11 11 12 12 13 13 13 13 14 16 17 17 17 17 17 18 17 17 17 17 17 17 18 18 19 19 18 18 19 20 19 19 20
19 19 19 23 27 27 24 22 22 21 20 18 17 17 18 17 16 17 18 18 18 16 15 13 11 9 6 5 5 6 6 6 5 4 3 3 2 2 3 4 5 6 6 6 6 7 8 9 10 10 10 10 11 11 12 12 13 13 13 14 16 17 17 17 17 17 18 18 17 17 17 17 17 17 17 18 18 18 19 19 19 20 19 19 19
20 20 21 24 25 23 20 19 20 20 19 19 19 19 19 19 18 18 19 19 18 17 15 13 11 8 6 5 5 5 6 6 5 5 4 2 2 3 4 4 5 6 6 5 6 7 8 9 9 10 10 10 10 11 12 12 13 13 14 16 18 17 17 17 17 17 17 17 17 17 17 17 17 17 17 18 18 18 19 19 20 20 20 19 19
20 22 24 24 22 20 19 19 19 19 19 20 19 19 20 22 23 22 20 19 18 17 15 12 9 7 6 6 6 6 6 6 6 5 3 2 3 4 4 6 7 5 4 4 6 7 8 9 9 9 9 10 10 11 12 13 13 13 15 17 18 18 17 17 16 16 17 17 17 17 17 16 17 17 17 18 18 19 19 19 20 20 20 20 20
19 21 24 24 20 18 18 18 18 19 18 18 19 21 24 26 26 25 24 22 20 17 14 11 9 8 8 8 8 7 7 7 5 4 3 3 3 3 6 8 9 6 4 5 6 7 8 9 9 9 9 10 11 11 12 12 13 13 14 16 17 17 17 17 16 16 16 16 16 16 16 16 16 17 17 18 18 18 19 19 19 19 20 20 20
18 19 23 21 17 17 18 18 18 18 19 22 24 26 26 26 26 26 25 22 17 14 13 12 11 11 10 10 9 8 7 6 5 3 3 3 2 4 7 8 6 5 6 6 6 8 9 9 8 9 9 10 11 12 12 13 13 13 13 15 16 16 16 16 16 16 16 16 15 16 16 16 17 17 18 19 19 18 19 20 20 20 20 21 21
18 19 20 19 16 16 17 18 20 23 26 27 27 26 26 26 25 23 19 15 13 14 14 13 13 12 11 10 10 9 8 6 5 4 4 3 2 4 6 6 5 6 6 7 7 8 9 9 9 9 10 11 12 12 12 13 13 12 13 14 15 15 15 15 16 16 16 15 15 16 16 17 18 19 19 19 19 19 19 20 20 21 22 22 22
17 19 21 19 17 17 19 22 25 28 28 26 25 26 28 26 21 17 15 15 17 16 14 13 14 13 11 12 12 10 8 7 7 7 7 6 5 5 6 5 5 6 6 7 7 8 9 9 9 10 11 11 12 12 12 12 12 12 13 14 15 15 15 15 16 15 15 15 15 16 17 18 19 19 20 20 20 20 19 20 21 22 22 21 20
16 20 24 24 24 24 27 29 29 27 25 23 25 27 26 21 18 17 17 18 18 16 13 14 14 12 11 12 12 11 10 9 9 8 8 7 6 5 5 5 5 6 7 7 7 8 8 9 10 10 11 11 11 11 11 11 12 13 14 15 15 15 15 15 16 15 15 16 16 17 18 19 19 19 20 20 19 19 20 20 21 21 20 19 19
18 22 27 30 31 32 32 31 28 25 24 24 25 25 22 19 20 20 17 16 17 16 14 14 13 11 11 12 12 11 10 9 8 6 5 5 5 5 5 5 6 6 6 7 7 8 9 10 10 11 11 11 11 11 11 11 12 13 13 14 15 15 15 15 16 16 16 16 17 18 18 19 19 19 19 19 19 19 20 20 20 19 19 19 19
23 28 31 33 34 34 32 29 27 26 25 24 24 23 21 22 22 20 16 16 17 16 14 13 12 11 12 13 13 11 9 7 6 5 4 4 5 5 5 5 6 6 6 7 7 8 9 10 10 10 10 10 10 10 11 11 12 13 13 14 15 15 15 15 15 16 16 17 18 18 18 19 20 19 19 19 19 19 19 19 18 18 19 19 19
29 32 34 34 34 33 31 29 28 27 25 24 23 22 23 23 21 17 16 17 17 15 14 13 11 11 13 14 14 11 8 6 5 5 5 5 5 5 5 5 5 5 6 7 7 8 9 9 10 10 10 10 10 11 11 11 12 13 13 14 14 14 15 15 15 15 16 17 17 18 19 20 20 19 19 18 19 19 18 18 18 18 19 19 19
34 35 34 33 32 32 31 30 28 26 25 24 23 23 23 20 17 16 16 17 16 15 14 12 10 11 13 14 13 11 9 7 6 5 5 5 5 5 5 5 4 5 6 7 7 7 8 9 9 8 9 9 10 11 11 12 12 12 13 13 14 14 15 15 16 16 16 17 18 19 19 19 19 18 18 18 18 18 18 18 18 19 20 20 20
36 34 33 32 31 31 31 29 27 25 24 24 22 21 18 16 15 15 16 17 16 15 14 12 11 11 12 14 13 11 9 8 7 6 5 5 5 5 5 4 4 5 6 6 6 7 7 8 7 7 8 9 9 10 12 12 12 12 12 13 13 14 15 16 16 16 16 18 19 19 19 19 19 19 18 18 18 18 19 19 20 21 21 21 21
33 33 31 30 29 29 28 26 26 25 24 21 18 16 15 15 15 15 16 17 16 15 14 13 12 11 11 12 12 11 9 8 6 6 5 5 5 4 4 3 4 5 6 6 6 7 7 7 6 7 8 9 10 11 12 11 11 11 12 12 13 15 16 16 15 15 17 18 19 19 19 19 19 19 19 18 19 19 20 21 21 21 21 21 21
31 30 29 29 29 29 28 27 26 23 20 17 16 15 15 15 15 15 16 17 16 15 14 13 12 11 10 10 9 9 8 7 6 5 5 4 4 3 3 4 5 6 6 6 6 6 6 5 6 7 8 9 10 11 11 11 11 11 11 12 14 15 14 13 14 16 18 18 18 18 19 20 20 20 20 20 21 21 21 22 22 22 21 21 21
28 28 28 29 29 29 28 27 25 21 18 17 17 16 15 15 15 16 16 16 16 16 15 13 12 11 10 8 8 8 7 6 5 4 3 3 3 3 3 4 5 5 6 6 6 6 5 5 5 7 8 10 11 11 11 11 11 11 12 13 13 11 12 15 18 19 18 17 18 19 20 20 21 21 20 21 21 22 23 22 22 22 22 21 21
23 24 24 25 25 24 23 22 20 18 17 17 16 15 15 15 15 16 15 16 17 16 15 13 12 11 9 8 8 7 7 6 5 4 3 2 2 3 3 4 4 5 6 6 5 5 5 5 6 7 8 9 10 11 11 11 11 12 13 13 11 12 17 21 22 18 17 18 20 20 20 21 21 21 21 22 22 23 23 22 21 21 21 21 21
19 19 19 20 20 20 20 19 18 17 17 16 15 16 16 16 16 16 16 16 17 17 15 14 12 11 9 9 8 8 7 5 4 3 2 2 2 3 3 4 5 5 5 5 5 4 5 5 6 7 8 9 10 11 10 11 13 13 12 12 15 19 22 22 20 19 20 22 21 20 20 21 22 22 22 22 22 23 22 21 21 21 21 21 21
18 18 18 18 18 18 18 17 17 17 17 16 16 17 17 17 16 16 16 16 16 16 15 14 13 11 10 10 9 8 7 5 4 3 2 2 2 3 3 4 5 5 5 5 5 4 5 5 6 7 9 10 10 10 11 12 12 11 11 15 21 22 21 20 21 23 24 23 23 23 23 22 22 22 21 21 22 22 22 21 20 20 20 21 22
17 16 16 16 17 17 16 16 16 16 16 16 17 18 18 18 17 16 16 16 16 16 15 14 13 12 11 10 9 8 7 5 3 2 2 2 2 3 3 4 4 5 5 5 5 4 5 5 6 8 9 10 10 11 12 12 12 14 17 20 21 21 21 23 24 25 24 23 25 26 24 22 21 21 21 21 22 22 21 20 21 21 21 21 22
Wind_Direction
196 198 196 194 192 191 191 192 196 201 206 216 225 230 241 258 278 300 310 317 328 8 54 65 66 66 61 56 52 47 42 38 34 32 31 32 30 26 22 21 22 21 17 16 18 15 9 5 8 8 359 353 350 349 353 353 344 338 340 336 324 321 312 303 297 295 301 303 300 298 302 305 297 290 289 287 285 283 275 271 272 271 268 271 277
200 200 198 197 195 195 196 197 201 206 211 221 229 235 244 254 272 290 277 200 101 101 97 91 82 77 73 66 62 56 51 47 42 41 39 38 38 34 31 29 30 30 27 24 23 23 21 19 19 15 11 11 11 11 11 7 0 356 355 349 338 337 332 314 308 308 309 310 307 305 306 306 301 299 301 300 299 297 289 280 275 272 271 270 274
201 200 199 200 199 200 201 201 205 210 216 224 230 236 241 243 248 220 168 137 121 114 105 100 91 83 79 74 70 64 59 56 50 48 45 42 42 41 38 37 37 36 34 30 28 29 28 28 26 23 21 24 23 21 18 10 4 2 358 352 343 337 332 319 312 311 311 311 312 315 317 315 307 304 306 307 305 302 298 294 288 281 278 275 272
200 198 198 200 201 202 203 205 210 213 218 225 227 229 229 217 198 169 152 138 127 120 109 103 95 88 83 77 74 70 64 61 57 54 52 47 46 44 43 43 42 40 39 35 33 32 32 32 31 28 25 25 24 20 16 11 6 4 0 356 349 340 334 324 312 309 310 313 316 320 323 323 318 313 312 314 312 307 305 305 304 299 293 288 281
199 197 197 199 200 202 206 209 213 216 219 222 220 219 210 188 170 158 149 139 130 123 114 106 99 93 88 81 77 73 67 64 60 58 56 53 52 51 48 47 45 43 42 40 37 35 36 36 34 30 27 24 21 16 11 7 4 3 1 355 349 344 337 328 322 316 311 312 317 321 323 326 326 325 324 323 319 316 312 309 310 310 309 305 297
197 197 197 199 201 204 209 211 215 220 220 219 213 204 191 175 162 154 148 140 132 126 119 111 104 97 91 85 80 75 70 67 62 59 57 55 55 55 53 51 48 47 44 42 40 38 38 38 35 32 29 24 19 13 8 4 1 358 356 350 345 341 333 329 328 322 316 315 316 318 323 328 328 327 331 332 325 320 317 312 311 313 317 316 310
196 198 198 201 203 206 210 214 218 219 215 211 203 190 178 167 158 151 147 141 136 131 123 115 107 100 94 87 81 76 72 68 64 60 58 58 58 56 55 52 50 48 46 44 42 41 41 40 37 34 32 27 21 15 9 4 359 357 356 349 343 338 333 331 330 324 321 321 319 321 326 326 325 328 333 333 325 322 322 320 317 317 317 315 311
197 200 201 205 208 210 212 214 214 213 208 201 190 179 170 163 156 150 146 142 137 132 125 118 110 103 97 91 85 79 74 69 65 61 58 59 60 58 54 52 50 48 47 45 43 43 45 45 42 41 40 35 30 27 21 15 6 359 356 351 345 342 338 335 334 333 333 330 328 331 331 328 330 335 336 335 332 333 332 324 318 316 316 312 305
200 203 205 208 212 213 211 209 207 207 202 190 181 175 167 161 155 150 146 142 135 131 126 120 115 109 102 95 89 83 77 72 70 69 66 61 59 58 55 51 49 48 46 46 45 45 50 52 50 51 50 42 38 38 34 30 25 14 4 356 348 345 344 342 342 342 340 336 336 339 335 335 342 341 339 340 338 334 330 324 318 316 315 312 305
203 207 209 211 214 213 208 205 204 201 194 185 178 173 166 160 155 151 147 141 136 133 129 123 119 114 108 100 91 85 81 77 73 71 73 71 62 55 55 52 49 49 48 47 49 50 52 55 52 49 46 39 35 35 31 30 30 27 24 19 8 357 350 346 347 347 343 340 340 341 338 341 347 345 342 343 340 335 331 326 321 319 316 312 310
206 210 212 214 214 212 207 203 201 196 189 183 178 171 166 160 155 151 145 141 139 137 133 128 123 117 111 103 96 92 88 84 78 72 72 76 70 58 55 55 52 51 51 50 52 52 51 52 48 42 37 31 25 24 21 19 19 19 22 26 25 20 11 358 352 349 346 343 340 341 344 344 345 347 347 347 344 339 335 328 324 324 323 316 314
206 211 214 216 214 213 209 202 199 194 187 182 177 171 166 161 156 151 146 143 142 139 135 130 125 121 115 107 102 100 96 90 83 76 72 75 76 66 57 59 57 54 55 53 52 51 49 48 45 38 34 28 20 15 11 9 10 6 4 11 23 27 25 20 10 356 345 341 339 342 348 345 342 348 351 347 341 335 331 329 328 327 324 319 315
207 211 215 217 216 214 208 203 199 193 185 181 175 170 168 163 157 152 148 146 144 140 137 133 129 126 119 113 108 106 101 94 87 81 76 78 81 73 63 65 64 59 58 56 53 51 47 45 45 39 32 26 20 14 6 360 2 3 358 354 7 23 25 26 22 7 349 341 340 344 349 348 345 346 349 345 336 330 327 327 329 327 323 321 316
210 215 217 218 217 212 207 203 199 190 183 179 173 171 170 163 156 152 150 148 145 142 139 137 133 129 123 119 116 112 108 101 95 89 83 83 85 77 67 68 67 64 63 61 59 56 50 45 43 39 32 25 21 17 7 357 356 0 360 356 355 7 20 23 19 10 357 348 345 344 345 347 344 339 342 345 336 326 322 321 321 321 319 316 312
214 217 218 218 215 209 205 202 196 187 181 176 173 172 168 159 155 152 151 149 146 144 143 139 134 131 128 125 122 120 116 109 104 99 91 87 87 80 71 69 67 67 68 66 65 60 52 47 43 37 32 25 20 15 8 360 356 358 360 358 353 354 6 9 4 4 1 353 347 344 340 341 338 331 338 345 338 327 320 314 312 314 314 312 312
217 217 216 216 213 207 203 199 192 185 179 175 174 172 165 158 155 152 150 149 147 144 139 133 131 133 134 132 128 126 124 117 111 106 95 88 85 79 75 70 65 67 72 73 72 63 51 44 38 34 31 23 16 12 10 4 357 356 357 355 352 351 355 355 353 353 354 349 344 343 340 340 342 337 333 337 339 336 325 316 317 322 319 317 317
219 217 215 214 211 206 201 196 189 182 178 176 175 169 161 156 152 149 147 144 141 137 130 130 138 145 144 141 134 130 130 125 115 106 92 80 68 58 71 69 62 68 78 80 77 70 61 53 43 36 30 21 12 9 11 8 357 354 354 350 347 347 348 348 345 344 345 343 339 339 337 339 343 340 326 330 342 347 334 324 329 330 323 319 317
221 219 216 214 209 203 199 194 187 180 178 177 172 163 156 151 148 146 144 139 134 133 135 143 155 158 151 145 138 133 135 137 125 105 85 73 54 14 31 56 53 68 92 95 89 78 67 54 47 43 34 21 11 8 10 8 358 352 351 345 342 344 344 341 339 338 338 335 334 335 333 334 338 334 326 332 345 353 343 332 332 327 320 318 315
221 220 218 213 205 199 196 192 185 179 176 172 163 154 147 142 139 139 138 136 135 138 148 161 166 159 151 145 139 135 138 146 137 105 80 72 51 3 0 28 30 39 98 112 106 92 73 51 42 39 34 21 9 5 6 5 360 351 347 343 340 340 339 335 333 334 333 330 330 331 329 331 334 331 332 337 345 351 346 339 334 328 322 318 315
222 219 210 200 194 190 188 184 178 172 165 155 144 139 133 129 131 135 137 141 145 151 164 172 165 157 152 148 145 140 138 145 138 109 88 78 55 16 359 1 2 16 102 127 108 93 93 76 46 30 26 17 7 3 2 1 360 350 345 344 338 333 332 328 325 327 325 322 323 324 325 330 332 331 335 339 343 348 346 341 337 332 324 318 315
194 187 176 174 178 178 174 169 162 156 150 144 140 140 143 144 146 149 150 153 158 166 175 174 164 159 158 155 152 146 141 143 134 114 103 73 43 17 357 349 347 5 86 103 76 55 61 79 53 18 11 5 359 355 350 354 359 350 343 340 332 331 331 321 315 319 318 315 319 323 326 330 331 333 338 339 342 345 342 338 337 333 326 320 316
167 168 167 167 164 155 145 142 141 140 145 150 148 148 151 154 157 158 157 161 170 175 174 170 166 162 162 164 161 153 152 156 140 117 101 57 29 16 11 9 7 16 35 53 53 35 37 59 34 357 354 350 345 339 336 347 355 341 333 331 328 338 342 321 311 318 318 317 322 326 328 331 332 334 337 337 338 339 336 333 332 330 325 319 314
175 169 162 154 147 143 144 149 152 152 156 158 154 148 146 150 156 162 163 169 177 177 170 170 170 167 168 174 176 169 165 164 153 125 78 44 30 27 42 74 73 37 22 32 30 18 31 41 353 337 338 334 332 328 323 332 342 333 333 337 338 347 346 327 317 320 319 318 323 326 327 329 330 330 332 332 331 330 329 327 325 324 321 317 313
175 160 149 148 150 154 160 165 165 161 159 157 151 145 144 150 162 171 173 175 178 177 175 175 173 172 175 181 189 186 172 159 153 125 64 50 53 52 62 96 92 45 22 24 19 8 5 347 327 327 329 326 329 326 311 316 332 336 340 349 351 346 342 335 330 327 323 322 326 327 326 326 326 325 325 325 324 323 323 322 322 321 319 316 313
170 161 155 158 163 164 164 163 161 158 155 152 148 148 155 163 170 175 183 186 182 180 181 178 175 177 175 170 175 176 164 155 147 113 73 70 76 67 69 120 101 14 2 358 349 334 326 325 324 326 325 322 327 325 302 301 319 330 339 345 342 337 336 335 333 330 326 325 326 325 324 324 324 322 320 320 320 321 322 322 322 322 320 318 316
157 154 151 153 157 157 153 150 151 152 152 153 155 160 165 170 175 184 193 192 183 179 180 178 178 177 166 157 157 156 156 158 153 138 118 104 89 67 74 119 341 330 304 309 323 322 321 326 327 324 316 310 313 315 302 297 308 317 322 324 327 330 331 331 330 327 325 324 323 321 320 321 320 318 317 316 317 320 322 323 323 323 323 322 319
146 150 152 149 147 145 141 139 141 146 150 155 160 164 167 172 186 196 194 185 177 176 178 178 175 164 152 149 150 151 159 168 166 165 173 165 164 184 191 222 303 309 291 308 324 315 309 312 309 304 302 304 306 305 296 295 306 314 315 318 325 328 328 329 327 323 321 321 319 317 317 318 316 316 316 315 317 321 323 322 321 322 323 323 318
151 153 154 150 145 141 139 138 138 141 146 153 158 162 170 188 205 201 191 180 175 176 173 167 159 147 143 145 150 159 173 178 170 167 175 231 257 251 220 248 284 300 313 325 320 301 293 299 300 296 300 309 312 309 304 308 318 322 323 326 326 323 324 327 325 321 320 320 317 316 317 316 315 314 314 314 316 319 321 320 319 320 322 321 316
147 145 145 143 140 138 139 143 146 147 150 154 160 169 187 204 199 186 177 173 174 172 159 148 143 140 143 149 158 174 181 167 166 182 195 229 272 290 299 300 306 312 320 327 322 305 297 303 306 308 312 316 319 320 321 323 324 324 326 328 324 321 325 327 324 323 324 321 316 317 318 316 316 317 317 318 319 320 320 320 319 319 320 318 314
145 144 144 145 144 142 144 151 159 161 160 159 163 173 188 191 177 174 175 175 176 172 159 150 149 151 155 157 162 174 168 156 168 193 209 228 255 265 269 282 289 298 317 328 318 300 301 312 315 317 320 321 321 323 324 324 324 325 327 326 322 323 325 324 323 324 323 318 316 318 319 318 319 321 322 322 321 320 319 318 316 316 317 316 313
150 150 150 150 151 151 152 157 161 163 164 165 165 165 161 151 152 164 170 169 165 159 151 146 148 151 155 162 170 173 167 167 178 194 208 225 241 250 270 292 299 311 331 334 310 293 305 317 318 319 321 321 321 322 324 325 326 326 326 323 323 325 323 321 322 322 317 314 316 318 318 319 321 322 322 322 322 321 322 322 320 319 318 316 313
155 154 154 155 156 158 157 158 161 165 168 170 167 159 147 133 127 136 146 150 150 145 139 139 140 138 139 157 174 176 174 174 177 183 190 197 213 255 281 295 302 315 329 322 301 303 316 318 318 321 321 319 320 323 325 326 327 328 326 323 324 324 320 318 320 317 312 312 315 315 316 319 321 321 321 322 322 323 325 326 325 321 317 314 311
158 157 157 158 161 163 163 165 170 172 170 169 168 164 152 138 127 123 128 135 138 137 135 136 133 128 133 151 169 177 173 167 165 166 170 189 237 272 289 295 304 320 327 309 297 312 322 317 317 320 319 319 323 325 325 326 328 328 325 322 322 322 318 317 317 313 311 312 312 312 315 318 319 320 320 320 320 319 319 320 320 317 314 312 312
163 163 163 163 166 168 170 172 174 172 168 167 167 161 150 143 138 134 129 127 128 129 129 128 127 134 149 157 162 165 160 156 158 161 172 228 260 278 286 278 275 291 316 309 308 320 323 318 318 320 320 322 326 326 327 328 328 325 322 322 323 322 320 318 316 313 313 313 312 313 318 319 319 320 320 318 317 316 314 315 317 316 314 313 312
168 168 168 168 169 171 173 173 170 166 162 158 152 147 145 146 147 147 144 138 133 131 132 136 147 160 163 160 157 155 154 156 160 168 200 247 263 267 267 264 262 267 283 297 312 323 322 318 318 319 321 326 328 328 329 328 325 323 324 325 324 322 320 319 317 314 314 314 313 315 317 317 317 318 317 315 314 313 312 313 314 313 311 312 312
172 168 169 172 173 171 169 165 159 154 149 145 144 145 149 152 153 149 144 140 138 143 148 154 163 168 165 162 160 157 160 169 178 197 228 252 263 254 259 271 285 296 300 305 315 320 318 317 319 321 325 329 330 328 327 323 319 321 327 328 326 325 325 323 320 315 312 311 310 311 312 312 312 314 314 313 311 310 310 310 310 309 308 309 309
174 169 169 172 169 161 154 151 149 148 145 146 149 150 150 149 144 139 136 143 158 166 163 160 164 167 167 169 170 170 176 189 205 226 246 267 266 245 256 282 303 306 308 314 317 316 316 318 324 328 331 330 328 325 321 318 316 320 326 327 326 325 325 323 318 314 312 310 309 309 308 308 310 312 312 311 310 309 308 307 307 307 307 305 303
177 169 165 162 155 146 142 143 146 147 146 148 151 150 145 139 136 138 153 171 177 175 170 166 169 172 172 175 179 184 192 206 221 233 239 242 242 247 264 288 299 301 310 316 314 313 318 325 332 334 331 327 322 319 317 315 316 319 322 322 322 323 325 324 320 317 315 312 309 308 307 307 309 311 311 310 308 307 306 306 306 306 306 305 302
167 165 165 161 153 146 144 143 144 146 146 147 147 144 139 139 149 166 178 182 181 181 179 176 178 181 177 175 178 186 198 212 224 231 231 232 241 261 281 293 297 303 309 312 313 318 325 332 335 332 326 321 317 316 317 317 317 316 317 318 319 322 324 323 321 318 315 312 310 309 308 308 309 311 310 308 307 306 305 305 305 304 303 302 301
150 155 161 158 150 145 144 145 146 145 144 143 142 141 145 158 175 185 187 185 185 188 187 184 185 185 179 175 180 189 204 219 228 232 239 249 261 276 287 292 299 307 309 311 319 327 331 333 331 325 321 319 318 319 320 320 317 314 313 315 318 319 319 319 318 316 314 312 311 309 309 310 311 313 311 308 306 304 302 301 300 299 298 298 299
146 149 151 149 145 143 143 145 145 143 142 142 144 151 164 181 191 195 193 190 191 192 190 189 188 183 181 183 187 195 213 234 238 235 247 262 267 278 288 293 299 306 311 319 328 332 331 328 324 319 318 319 320 321 322 321 317 314 312 314 315 316 316 316 316 314 313 311 310 309 310 312 313 311 308 304 302 300 298 297 297 298 298 298 299
146 146 145 144 144 143 142 143 144 144 145 147 153 167 184 195 199 200 198 197 196 192 189 190 186 179 185 191 192 196 216 241 245 241 251 259 266 276 284 288 296 309 321 327 330 330 326 322 318 317 319 321 322 323 324 321 317 314 313 314 314 315 315 315 314 314 312 310 310 310 311 311 310 306 303 302 300 299 298 298 299 300 300 300 300
147 145 144 145 145 143 143 145 147 148 150 156 169 186 198 203 204 204 201 199 197 193 191 190 181 174 184 194 193 197 216 234 237 238 247 257 268 277 281 288 304 319 326 328 326 325 322 318 315 317 320 322 325 325 323 320 317 313 312 312 312 313 315 315 313 313 312 310 311 311 310 309 307 304 302 301 300 299 300 301 302 302 301 300 300
146 146 147 147 147 147 148 148 149 152 161 173 188 201 208 209 209 207 203 200 197 193 191 189 181 174 180 189 193 201 218 229 231 236 247 256 266 275 284 298 314 321 325 326 322 321 319 315 313 318 321 323 326 325 321 319 316 311 310 311 311 312 314 314 313 314 314 313 311 309 307 305 304 302 301 301 301 302 303 303 303 302 301 299 299
147 149 151 151 151 150 150 150 156 166 178 190 200 207 209 210 211 209 204 200 196 191 190 191 187 182 181 186 194 206 218 223 226 234 246 255 265 280 295 310 320 323 324 321 319 317 316 313 313 319 322 323 325 325 321 317 314 311 310 308 308 311 314 316 316 317 316 313 309 306 304 303 302 301 301 302 302 301 301 300 300 299 298 296 295
154 156 158 158 156 155 156 163 173 183 193 201 206 207 209 213 213 209 204 200 195 192 193 193 191 190 191 194 199 205 213 221 226 230 240 258 279 300 310 315 322 323 319 317 318 315 310 310 315 318 320 321 322 322 320 316 314 312 309 308 311 314 315 315 317 318 316 311 307 305 303 302 300 299 298 298 299 298 296 295 294 293 292 291 290
165 166 167 166 164 164 168 176 186 197 204 206 208 210 211 211 209 207 204 199 194 193 196 197 196 197 199 201 202 204 209 217 223 227 241 265 286 303 311 315 321 320 316 315 316 311 308 313 318 317 318 320 319 318 317 316 314 313 314 315 316 313 305 304 310 314 313 308 305 304 301 298 297 297 296 296 297 297 294 291 290 289 289 289 288
174 174 173 172 172 173 179 187 194 201 206 207 210 212 211 208 206 206 203 196 192 194 198 200 200 201 200 199 201 203 203 207 216 230 248 270 289 304 310 311 313 315 314 312 310 311 312 315 316 316 318 319 317 316 316 315 314 316 318 316 308 297 296 302 308 312 312 309 306 302 298 295 294 294 293 293 294 294 291 289 288 288 288 289 288
183 180 179 179 179 182 189 195 198 203 207 209 209 208 207 207 208 206 201 195 194 196 200 203 204 204 201 196 193 194 196 200 211 229 246 272 294 301 304 304 305 308 309 307 307 309 310 310 314 317 316 314 314 314 314 312 315 318 317 307 298 297 302 309 316 319 318 314 308 301 297 295 292 291 291 291 292 291 289 287 287 287 288 288 287
187 185 183 184 188 193 197 200 202 205 208 209 208 206 205 207 208 205 199 196 196 198 202 206 206 203 198 192 188 189 193 196 205 224 247 275 287 292 300 303 301 301 302 303 303 305 305 309 313 312 311 313 313 310 309 313 316 311 301 299 302 307 314 322 325 324 320 315 310 306 302 296 291 289 291 292 292 292 289 287 286 288 288 287 286
186 189 190 192 198 203 205 207 209 210 210 210 209 206 205 207 209 205 198 196 198 199 201 203 201 195 190 186 183 183 184 188 200 224 247 264 276 289 297 296 295 300 303 301 299 299 301 307 309 308 310 313 310 305 310 315 305 290 292 303 312 319 325 326 323 321 318 316 315 313 308 298 290 290 292 294 294 292 290 288 288 288 287 286 286
Height
801 803 803 804 805 805 807 808 808 809 810 810 811 811 811 812 812 812 812 812 811 811 811 811 811 811 810 810 810 809 809 808 808 807 807 806 806 805 804 803 802 801 801 800 799 799 798 798 797 797 796 796 795 795 794 794 794 794 794 793 793 793 792 791 790 787 785 784 782 781 780 779 778 776 775 774 774 774 773 773 772 771 771 770 768
800 801 802 803 804 805 806 807 808 809 809 810 810 810 811 811 811 811 811 811 811 811 811 811 811 811 810 810 810 810 809 809 808 808 807 807 806 806 805 804 803 802 802 801 800 800 799 799 798 798 797 796 796 795 795 794 794 794 793 793 792 792 792 791 789 787 784 783 781 780 779 778 776 775 774 773 773 772 772 771 770 769 768 768 766
798 800 801 802 803 804 805 806 807 808 809 809 810 810 810 811 811 811 811 811 811 811 811 811 811 811 811 810 810 810 810 809 809 809 808 808 807 807 806 805 805 804 803 803 802 801 801 800 799 799 798 798 797 797 796 795 794 794 793 793 792 791 791 790 789 787 784 782 780 779 778 777 776 775 774 773 772 771 770 769 768 767 766 765 765
797 799 800 801 802 803 804 805 806 807 808 808 809 809 809 810 810 810 810 810 811 811 811 811 811 811 811 811 811 811 810 810 810 810 809 809 808 808 807 807 806 806 805 804 803 803 802 802 801 801 800 799 799 798 798 797 796 795 794 793 792 791 790 790 788 787 784 782 779 778 777 776 775 774 773 772 771 770 769 767 766 765 764 763 763
796 797 799 800 801 802 803 804 805 806 807 807 808 808 808 808 809 809 810 810 810 811 811 811 811 811 811 811 811 811 811 811 811 811 810 810 810 809 809 808 808 807 807 806 805 804 804 804 803 803 802 801 801 800 800 799 797 796 795 794 793 792 790 789 788 786 785 782 780 778 776 775 774 773 772 771 770 769 768 767 766 764 762 762 761
794 796 797 799 800 801 802 803 804 805 805 806 806 807 807 808 808 809 810 810 810 811 811 811 811 811 812 812 812 812 812 812 812 812 812 811 811 810 810 809 809 808 808 807 807 806 806 805 805 804 804 803 803 802 801 800 799 797 796 795 794 792 791 789 787 786 784 782 780 778 776 775 773 772 772 771 770 769 767 766 765 764 762 761 760
792 794 796 797 798 799 800 801 802 803 804 804 805 805 806 807 807 808 809 809 810 810 810 811 811 812 812 812 813 813 812 813 813 813 812 812 812 811 811 811 810 810 809 809 808 808 807 807 806 806 806 805 804 804 803 801 800 799 797 796 795 793 791 789 787 785 783 781 779 777 776 775 773 772 771 771 769 768 767 766 764 763 762 761 759
791 792 794 795 796 797 799 800 800 801 802 802 803 804 805 805 806 807 808 808 809 810 810 811 811 812 813 813 813 813 813 813 813 813 813 813 813 812 812 812 811 811 810 810 810 809 809 808 808 807 807 806 805 805 803 802 801 800 799 797 795 794 791 789 787 785 783 781 779 778 776 775 773 772 771 770 769 767 767 766 764 762 760 759 758
789 791 792 793 795 796 797 798 798 799 800 801 801 802 803 804 805 806 807 808 809 809 810 811 811 812 813 813 813 813 813 813 813 813 814 814 814 813 813 813 812 812 811 811 811 811 810 810 809 809 808 807 806 805 804 803 802 800 799 798 796 795 792 790 788 786 784 782 780 779 777 775 774 774 773 771 770 769 767 766 764 761 760 757 756
787 788 790 791 792 794 795 795 796 797 798 799 799 800 801 803 804 805 806 807 808 809 810 810 811 812 813 813 814 813 813 814 814 814 814 814 814 814 814 814 813 813 812 812 812 811 811 811 811 810 809 809 808 806 805 804 802 801 800 798 797 796 794 792 790 788 786 784 782 780 778 777 776 775 774 773 772 770 768 766 764 761 759 756 753
784 786 787 788 790 791 792 793 794 795 795 796 797 799 800 801 803 804 805 806 807 808 809 810 811 812 813 813 814 814 814 815 814 814 814 814 814 815 815 814 814 813 813 812 812 812 812 812 811 811 810 810 809 807 806 805 803 802 800 799 798 797 795 794 792 791 788 786 784 782 780 779 777 776 775 773 772 770 768 766 763 761 759 756 752
782 783 785 786 787 788 789 790 791 792 793 794 796 797 799 800 801 803 804 805 807 808 809 810 811 812 813 813 814 814 815 815 815 815 815 815 815 815 815 815 814 814 814 813 813 813 812 812 812 812 811 810 810 808 807 806 804 802 800 799 798 797 796 795 794 793 791 788 786 784 782 781 779 777 776 775 773 772 769 767 764 762 759 757 754
779 781 782 783 784 785 787 787 789 790 791 793 794 795 797 799 800 802 803 805 806 808 809 810 811 812 813 813 814 815 815 816 816 816 816 815 815 815 816 815 815 815 814 814 814 814 813 813 813 813 812 811 811 809 808 806 804 803 801 799 797 796 796 795 794 793 792 790 788 786 784 783 782 780 779 777 775 773 770 767 765 762 760 757 755
776 778 779 780 781 782 784 785 786 788 789 791 792 794 796 797 799 801 802 804 806 808 809 811 811 812 813 814 815 815 816 816 817 817 816 816 815 815 816 816 815 815 815 815 815 814 814 814 813 813 813 812 811 810 809 807 805 803 802 800 798 796 795 795 794 793 793 791 790 788 786 785 784 782 780 779 777 774 771 768 766 763 761 758 755
773 774 776 777 778 779 781 782 784 785 787 789 790 792 794 796 798 800 802 804 806 808 810 811 812 813 813 814 815 815 816 817 817 817 817 816 816 816 816 816 816 816 816 815 815 815 815 815 814 814 814 813 812 811 810 808 806 804 802 801 799 797 796 795 794 793 792 792 790 789 788 786 785 783 781 779 777 775 772 769 766 764 761 757 753
770 771 773 774 775 777 778 780 781 783 785 787 789 791 793 795 797 799 801 804 806 808 811 812 814 815 815 815 815 816 816 817 818 818 818 817 816 816 816 816 816 816 816 816 816 816 815 815 815 814 814 814 813 812 810 809 807 805 803 801 800 798 796 795 793 792 791 791 790 789 787 786 784 782 780 779 777 774 771 768 766 763 760 756 753
766 768 769 771 772 774 776 777 779 781 783 785 787 790 792 794 797 799 801 804 807 809 811 813 815 816 816 817 816 816 817 817 818 819 818 818 817 817 816 816 816 816 816 816 816 816 816 816 815 815 815 814 813 812 811 809 808 806 804 802 801 799 797 795 793 791 790 789 788 787 786 785 783 781 780 778 776 774 771 768 765 763 760 757 753
763 764 766 767 769 771 773 775 777 779 781 784 786 789 791 794 796 799 802 804 807 809 811 813 816 816 817 817 817 817 817 818 818 819 819 818 818 817 816 816 816 816 816 817 817 817 816 816 815 815 815 814 813 812 811 810 808 807 805 803 801 799 798 796 793 791 790 788 788 786 785 784 783 781 779 778 775 773 772 769 767 764 761 758 755
760 761 763 765 768 770 772 774 777 779 781 784 787 789 791 794 797 799 802 804 807 809 812 814 816 816 817 818 818 818 818 818 819 819 819 819 819 817 817 816 816 816 815 816 817 817 817 816 815 815 815 814 813 812 811 810 809 808 806 804 802 800 798 796 793 791 790 788 787 786 784 783 782 780 779 777 775 774 772 770 768 766 763 759 756
759 761 763 766 768 770 772 775 778 780 783 786 789 791 793 795 798 800 802 805 807 810 812 814 814 815 816 817 818 818 819 819 819 819 819 819 819 818 818 817 816 815 815 815 815 816 816 816 815 815 814 814 813 812 811 811 809 808 807 805 803 801 798 796 794 792 790 788 787 785 784 782 781 780 778 777 775 773 772 770 769 767 764 761 757
758 761 763 765 768 771 773 776 779 781 783 784 787 791 793 795 798 800 802 804 807 809 811 812 813 815 816 817 818 819 819 819 819 819 819 819 819 818 818 817 816 815 815 814 814 814 815 816 815 815 814 813 813 812 811 810 809 808 807 805 803 800 797 795 793 792 790 788 786 785 783 782 780 779 778 776 775 773 772 770 769 767 765 762 759
756 758 760 764 768 771 775 778 781 783 784 784 785 788 791 794 797 799 801 803 805 807 809 811 812 814 816 817 818 819 820 820 820 819 819 819 819 818 818 818 817 816 815 815 814 814 815 815 815 815 814 813 812 812 811 810 809 807 805 803 801 799 796 794 793 791 789 787 785 784 783 781 780 778 777 776 775 773 772 770 768 767 765 763 760
756 757 758 761 765 768 770 774 778 782 785 786 788 790 793 795 799 801 802 802 804 807 809 811 812 813 814 816 817 819 820 820 820 820 819 818 818 818 818 818 818 817 816 816 815 815 815 815 815 814 813 813 812 811 810 809 808 806 804 802 800 797 795 793 792 791 789 787 785 784 782 781 780 778 777 776 775 773 771 769 768 766 764 762 760
756 758 758 759 760 762 764 768 772 779 785 789 792 794 796 798 801 803 803 803 805 807 809 810 812 812 813 815 816 818 820 821 821 820 819 818 818 819 819 819 818 818 817 817 816 816 815 815 814 813 813 812 811 810 808 807 806 805 803 801 798 796 795 794 792 791 789 786 784 783 782 781 780 779 778 777 775 773 771 769 767 765 763 760 758
754 756 757 757 757 758 761 765 770 777 784 789 792 794 796 798 801 802 803 804 805 806 807 808 810 811 812 814 815 817 819 820 820 820 819 818 819 819 819 819 819 818 818 817 817 816 815 814 813 813 812 811 810 809 807 806 805 803 802 800 797 795 794 793 792 791 789 786 785 783 782 781 780 780 779 777 775 772 770 768 766 764 762 759 756
754 757 759 760 760 760 763 766 771 776 782 786 790 792 795 798 801 803 803 802 803 804 805 806 807 809 811 813 815 817 818 819 820 819 819 819 819 820 820 820 819 819 818 817 816 815 814 813 813 812 811 810 809 808 807 805 803 801 799 797 796 795 793 792 791 791 789 787 785 784 782 781 780 779 778 776 774 772 770 768 766 763 761 758 755
753 757 759 761 762 764 767 770 774 779 784 787 790 793 795 799 801 801 801 800 801 802 803 804 805 807 810 812 814 816 817 818 819 819 819 819 819 819 819 819 819 818 817 816 815 814 813 812 811 810 810 808 807 805 804 802 800 799 797 796 795 794 793 792 791 790 788 787 786 784 782 781 779 778 776 775 773 771 770 768 766 763 761 758 754
750 753 755 757 761 765 769 772 776 781 785 788 790 793 796 798 800 800 799 800 800 801 802 804 805 807 810 812 814 815 817 817 817 818 819 819 819 819 819 819 819 818 817 816 815 814 813 812 810 809 808 807 805 803 802 801 800 798 797 795 794 793 791 790 789 788 787 787 785 783 782 780 778 776 774 773 771 770 769 768 766 764 761 759 755
751 754 756 758 761 765 768 772 776 781 785 787 790 792 794 796 797 797 798 799 800 801 802 804 806 808 810 812 814 815 815 816 817 818 819 819 819 819 819 819 819 818 818 816 815 814 812 811 809 808 807 806 804 803 801 800 799 797 795 794 793 792 790 789 787 786 787 786 785 782 781 779 777 775 773 771 770 769 768 767 766 764 761 759 755
752 754 755 758 761 763 767 770 774 778 782 785 788 791 793 794 794 795 797 799 800 801 802 804 806 808 809 811 813 814 815 815 816 818 819 819 820 820 819 819 819 818 817 816 814 813 811 810 808 807 806 805 803 802 801 800 798 796 795 794 793 791 790 789 787 787 787 786 784 782 780 778 776 775 773 771 770 769 767 766 765 763 761 758 755
751 753 755 757 760 763 766 769 772 776 780 783 786 789 791 793 794 795 797 799 800 802 803 804 806 808 810 811 813 814 815 815 816 818 819 819 819 819 819 819 818 817 816 815 814 812 810 809 808 806 806 805 803 802 801 799 797 796 794 793 792 791 790 789 788 788 787 785 782 781 779 778 776 775 773 771 770 768 766 765 763 761 760 758 755
750 752 754 757 760 763 766 769 772 776 779 782 785 788 790 792 794 796 798 799 801 802 803 805 807 808 810 811 813 813 815 816 817 818 818 819 819 819 819 818 817 817 816 815 813 811 809 808 807 806 805 804 803 802 801 799 797 796 795 793 791 791 790 790 789 788 786 783 781 780 778 777 776 774 773 772 770 768 767 765 763 761 759 757 755
749 751 754 757 760 763 765 768 771 774 776 779 783 785 787 790 793 796 798 800 801 802 803 805 807 809 810 812 813 814 815 816 817 818 818 819 819 819 818 818 817 816 815 814 812 811 809 808 807 806 805 804 802 801 800 798 797 796 795 793 791 790 790 790 789 787 785 783 781 779 778 776 775 774 772 771 770 768 767 765 763 761 758 756 753
748 750 753 756 759 762 764 767 769 771 774 777 780 783 785 788 791 794 798 800 801 803 805 806 808 809 811 812 813 814 815 816 817 818 818 818 818 818 818 817 816 815 814 813 811 810 809 808 807 806 805 803 802 801 799 798 797 796 794 793 791 791 790 789 788 787 785 783 781 779 778 777 775 774 772 771 769 768 766 764 763 760 757 754 751
749 751 753 756 759 761 763 766 768 770 773 776 778 781 784 787 790 793 796 798 801 803 805 807 809 810 811 812 813 814 815 816 817 818 818 818 818 817 817 816 814 813 812 812 811 810 809 808 806 805 804 803 801 800 799 798 797 796 794 793 792 791 790 789 788 787 785 784 782 780 779 778 776 775 773 771 769 768 766 764 762 760 757 753 750
748 751 753 756 758 760 762 764 767 769 772 774 778 781 784 787 790 792 795 798 801 804 806 808 809 811 812 812 813 814 815 816 817 817 817 817 817 817 816 814 813 812 811 811 810 809 808 807 805 804 803 802 801 800 799 798 797 796 794 793 793 792 791 790 789 787 785 784 782 781 779 778 776 775 773 771 769 767 765 763 761 759 757 754 751
746 749 752 755 757 759 761 763 766 768 771 774 777 781 784 787 790 793 796 799 802 804 806 808 809 810 812 812 813 814 815 816 816 817 817 817 816 816 815 814 812 811 810 810 809 808 807 806 804 803 802 801 800 800 799 798 797 795 794 793 793 792 791 790 789 787 785 784 782 781 779 777 776 774 772 770 768 766 764 762 760 757 755 753 750
745 747 749 753 756 758 761 763 766 769 772 775 778 781 784 787 791 794 797 800 802 804 805 806 808 809 810 811 813 814 814 815 815 815 815 815 815 814 813 812 812 811 810 809 809 808 806 804 803 802 801 801 800 800 799 797 796 795 794 793 791 790 790 789 788 786 785 783 781 780 778 777 775 773 771 769 767 765 763 761 759 756 753 751 748
745 746 748 750 754 757 760 763 767 771 774 776 779 781 784 788 792 795 797 799 801 802 803 804 806 807 808 810 811 813 813 814 814 813 813 813 813 812 812 811 810 810 809 809 808 806 805 803 802 802 801 801 800 799 798 797 796 794 793 792 790 789 788 787 786 785 783 782 780 779 777 776 774 772 770 768 766 764 762 760 758 755 752 749 746
744 746 748 750 753 756 760 764 768 771 774 777 780 782 786 789 792 794 796 798 799 800 801 802 804 805 806 808 810 811 812 811 811 811 811 811 811 811 810 810 809 809 808 807 806 805 803 802 802 801 801 800 799 798 797 796 795 794 793 791 790 789 788 787 785 784 783 781 780 778 777 775 773 771 769 767 765 763 761 758 756 754 751 748 745
743 746 749 752 754 757 761 765 768 771 774 777 780 783 787 789 791 793 794 796 797 798 799 800 802 803 805 806 808 809 810 809 809 809 810 810 810 810 809 809 808 808 807 806 805 803 803 802 802 801 800 799 798 798 796 796 795 794 792 791 790 789 788 786 785 784 782 781 780 778 776 774 772 770 768 766 764 762 759 756 754 751 749 746 743
744 747 750 753 756 758 762 766 769 772 775 777 781 784 786 788 789 791 793 793 794 796 797 798 800 802 803 805 806 808 808 808 808 808 808 809 809 808 808 807 807 806 806 804 803 803 802 802 801 800 799 799 798 797 796 795 794 793 792 791 790 789 787 786 785 784 782 781 779 777 775 773 771 769 767 765 762 760 757 754 752 750 747 745 742
745 748 752 755 757 760 763 766 769 772 775 778 781 783 784 786 788 789 790 791 793 794 795 796 798 800 802 803 805 807 807 807 807 807 807 807 807 807 806 806 805 805 804 803 802 802 801 801 800 799 798 798 797 796 795 794 793 792 791 790 789 788 787 785 784 783 781 779 777 775 774 772 770 767 765 763 760 758 755 753 751 748 746 744 741
747 750 753 756 759 761 763 766 768 772 775 778 780 781 783 785 786 787 788 789 791 792 793 795 797 799 801 802 804 805 805 805 805 805 806 806 806 805 805 804 804 803 803 802 801 801 800 799 799 798 797 797 796 795 794 793 792 792 791 790 789 788 786 784 783 781 780 778 776 774 772 770 768 765 763 761 758 756 754 751 749 747 745 743 740
748 751 754 757 759 761 763 766 769 772 775 777 778 780 781 783 784 785 786 787 788 790 792 793 795 797 799 800 801 802 803 803 803 804 804 804 804 804 803 803 802 802 801 800 800 799 799 798 798 797 796 796 795 794 793 792 792 791 790 789 788 786 784 783 782 781 779 778 775 773 771 768 766 763 761 759 757 755 752 750 748 746 743 741 738
749 752 754 756 758 760 762 766 769 772 774 775 776 777 778 780 781 782 783 785 786 788 790 791 793 794 796 797 798 800 800 801 802 802 802 803 803 802 802 801 801 800 800 799 799 798 797 797 796 796 795 794 794 793 792 791 791 790 789 788 786 785 783 782 781 780 778 776 774 772 769 767 764 762 759 757 755 753 750 748 746 743 741 738 736
749 751 754 755 757 759 762 765 767 770 771 772 773 774 775 776 778 780 781 782 784 785 787 789 790 792 793 794 796 797 798 799 800 800 801 801 801 801 800 800 799 799 799 798 797 797 796 796 795 794 794 793 793 792 791 791 790 789 788 786 785 784 782 781 779 778 777 775 773 770 767 765 762 759 757 755 753 750 748 745 743 740 738 736 733
750 752 753 755 756 758 761 763 765 767 768 769 770 771 772 774 775 776 778 779 781 783 785 786 788 789 791 792 794 795 797 798 798 799 799 799 799 799 799 798 798 798 797 797 796 796 795 795 794 793 793 792 792 791 790 790 788 788 787 786 784 782 780 779 778 777 775 772 770 768 765 762 760 757 754 752 750 747 745 742 740 738 735 733 731
749 751 752 754 755 757 759 760 762 763 765 766 767 768 770 771 772 773 775 777 779 781 782 784 785 787 789 791 792 794 795 796 796 797 797 797 797 798 797 797 797 796 796 796 795 795 794 793 793 792 792 791 791 790 789 788 787 787 786 784 782 780 779 777 775 773 772 769 767 765 762 759 757 754 751 749 747 744 742 740 737 735 733 730 728
747 749 750 752 754 755 756 757 759 760 761 763 763 765 767 768 769 771 772 774 776 778 780 781 783 785 787 789 790 792 793 794 795 795 795 796 796 796 796 796 796 795 795 794 794 793 793 792 792 791 791 790 790 789 788 787 786 785 784 782 780 778 777 774 772 771 769 766 764 761 759 756 753 751 748 746 744 742 739 737 735 733 730 728 725
745 747 748 750 751 752 753 754 755 757 758 759 760 762 764 765 766 768 770 772 774 775 777 779 781 784 785 787 788 790 791 792 793 794 794 795 795 795 795 795 794 794 793 793 792 792 792 791 791 790 790 789 788 788 787 786 784 783 781 780 778 776 774 772 770 768 766 764 761 758 755 752 750 748 746 744 741 739 737 734 732 730 728 725 722